<?xml version="1.0"?>
<gpx xmlns="http://www.topografix.com/GPX/1/1" xmlns:xsi="http://www.w3.org/2001/XMLSchema-instance" version="1.1" creator="GPX RubyGem 1.0.0 -- http://dougfales.github.io/gpx/" xsi:schemaLocation="http://www.topografix.com/GPX/1/1 http://www.topografix.com/GPX/1/1/gpx.xsd">
  <metadata>
    <name/>
    <time>2026-05-07T07:15:38+00:00</time>
    <bound minlat="90.0" minlon="180.0" maxlat="-90.0" maxlon="-180.0"/>
  </metadata>
  <trk>
    <name/>
    <trkseg>
      <trkpt lat="46.928284" lon="11.996594">
        <time>1970-01-01T00:00:00+00:00</time>
        <ele>1639.0</ele>
      </trkpt>
      <trkpt lat="46.928266" lon="11.996886">
        <time>1970-01-01T00:00:00+00:00</time>
        <ele>1648.0</ele>
      </trkpt>
      <trkpt lat="46.92845" lon="11.996694">
        <time>1970-01-01T00:00:00+00:00</time>
        <ele>1651.0</ele>
      </trkpt>
      <trkpt lat="46.928538" lon="11.996667">
        <time>1970-01-01T00:00:00+00:00</time>
        <ele>1654.0</ele>
      </trkpt>
      <trkpt lat="46.928618" lon="11.996726">
        <time>1970-01-01T00:00:00+00:00</time>
        <ele>1658.0</ele>
      </trkpt>
      <trkpt lat="46.928732" lon="11.996742">
        <time>1970-01-01T00:00:00+00:00</time>
        <ele>1666.0</ele>
      </trkpt>
      <trkpt lat="46.928871" lon="11.996715">
        <time>1970-01-01T00:00:00+00:00</time>
        <ele>1673.0</ele>
      </trkpt>
      <trkpt lat="46.929007" lon="11.996656">
        <time>1970-01-01T00:00:00+00:00</time>
        <ele>1679.0</ele>
      </trkpt>
      <trkpt lat="46.929109" lon="11.996565">
        <time>1970-01-01T00:00:00+00:00</time>
        <ele>1680.0</ele>
      </trkpt>
      <trkpt lat="46.929252" lon="11.996522">
        <time>1970-01-01T00:00:00+00:00</time>
        <ele>1686.0</ele>
      </trkpt>
      <trkpt lat="46.929439" lon="11.99649">
        <time>1970-01-01T00:00:00+00:00</time>
        <ele>1696.0</ele>
      </trkpt>
      <trkpt lat="46.929527" lon="11.996506">
        <time>1970-01-01T00:00:00+00:00</time>
        <ele>1701.0</ele>
      </trkpt>
      <trkpt lat="46.929574" lon="11.996533">
        <time>1970-01-01T00:00:00+00:00</time>
        <ele>1703.0</ele>
      </trkpt>
      <trkpt lat="46.929662" lon="11.996694">
        <time>1970-01-01T00:00:00+00:00</time>
        <ele>1711.0</ele>
      </trkpt>
      <trkpt lat="46.929816" lon="11.996737">
        <time>1970-01-01T00:00:00+00:00</time>
        <ele>1719.0</ele>
      </trkpt>
      <trkpt lat="46.929952" lon="11.996699">
        <time>1970-01-01T00:00:00+00:00</time>
        <ele>1725.0</ele>
      </trkpt>
      <trkpt lat="46.930095" lon="11.996538">
        <time>1970-01-01T00:00:00+00:00</time>
        <ele>1729.0</ele>
      </trkpt>
      <trkpt lat="46.930212" lon="11.996502">
        <time>1970-01-01T00:00:00+00:00</time>
        <ele>1732.0</ele>
      </trkpt>
      <trkpt lat="46.930336" lon="11.996458">
        <time>1970-01-01T00:00:00+00:00</time>
        <ele>1736.0</ele>
      </trkpt>
      <trkpt lat="46.930439" lon="11.996372">
        <time>1970-01-01T00:00:00+00:00</time>
        <ele>1741.0</ele>
      </trkpt>
      <trkpt lat="46.93052" lon="11.996431">
        <time>1970-01-01T00:00:00+00:00</time>
        <ele>1745.0</ele>
      </trkpt>
      <trkpt lat="46.930611" lon="11.996308">
        <time>1970-01-01T00:00:00+00:00</time>
        <ele>1748.0</ele>
      </trkpt>
      <trkpt lat="46.930706" lon="11.996238">
        <time>1970-01-01T00:00:00+00:00</time>
        <ele>1751.0</ele>
      </trkpt>
      <trkpt lat="46.930999" lon="11.996141">
        <time>1970-01-01T00:00:00+00:00</time>
        <ele>1760.0</ele>
      </trkpt>
      <trkpt lat="46.931117" lon="11.996002">
        <time>1970-01-01T00:00:00+00:00</time>
        <ele>1763.0</ele>
      </trkpt>
      <trkpt lat="46.931249" lon="11.995938">
        <time>1970-01-01T00:00:00+00:00</time>
        <ele>1767.0</ele>
      </trkpt>
      <trkpt lat="46.931285" lon="11.995954">
        <time>1970-01-01T00:00:00+00:00</time>
        <ele>1768.0</ele>
      </trkpt>
      <trkpt lat="46.931505" lon="11.995889">
        <time>1970-01-01T00:00:00+00:00</time>
        <ele>1775.0</ele>
      </trkpt>
      <trkpt lat="46.931699" lon="11.995637">
        <time>1970-01-01T00:00:00+00:00</time>
        <ele>1777.0</ele>
      </trkpt>
      <trkpt lat="46.931819" lon="11.995582">
        <time>1970-01-01T00:00:00+00:00</time>
        <ele>1781.0</ele>
      </trkpt>
      <trkpt lat="46.931818" lon="11.995841">
        <time>1970-01-01T00:00:00+00:00</time>
        <ele>1787.0</ele>
      </trkpt>
      <trkpt lat="46.931859" lon="11.995979">
        <time>1970-01-01T00:00:00+00:00</time>
        <ele>1791.0</ele>
      </trkpt>
      <trkpt lat="46.93188" lon="11.9963">
        <time>1970-01-01T00:00:00+00:00</time>
        <ele>1798.0</ele>
      </trkpt>
      <trkpt lat="46.93195" lon="11.996429">
        <time>1970-01-01T00:00:00+00:00</time>
        <ele>1802.0</ele>
      </trkpt>
      <trkpt lat="46.931952" lon="11.996552">
        <time>1970-01-01T00:00:00+00:00</time>
        <ele>1803.0</ele>
      </trkpt>
      <trkpt lat="46.932005" lon="11.996756">
        <time>1970-01-01T00:00:00+00:00</time>
        <ele>1810.0</ele>
      </trkpt>
      <trkpt lat="46.932052" lon="11.99682">
        <time>1970-01-01T00:00:00+00:00</time>
        <ele>1814.0</ele>
      </trkpt>
      <trkpt lat="46.932065" lon="11.99701">
        <time>1970-01-01T00:00:00+00:00</time>
        <ele>1821.0</ele>
      </trkpt>
      <trkpt lat="46.93195" lon="11.997188">
        <time>1970-01-01T00:00:00+00:00</time>
        <ele>1823.0</ele>
      </trkpt>
      <trkpt lat="46.931922" lon="11.997334">
        <time>1970-01-01T00:00:00+00:00</time>
        <ele>1826.0</ele>
      </trkpt>
      <trkpt lat="46.932064" lon="11.99751">
        <time>1970-01-01T00:00:00+00:00</time>
        <ele>1834.0</ele>
      </trkpt>
      <trkpt lat="46.932411" lon="11.997747">
        <time>1970-01-01T00:00:00+00:00</time>
        <ele>1845.0</ele>
      </trkpt>
      <trkpt lat="46.932596" lon="11.997846">
        <time>1970-01-01T00:00:00+00:00</time>
        <ele>1851.0</ele>
      </trkpt>
      <trkpt lat="46.932799" lon="11.997915">
        <time>1970-01-01T00:00:00+00:00</time>
        <ele>1856.0</ele>
      </trkpt>
      <trkpt lat="46.932917" lon="11.99804">
        <time>1970-01-01T00:00:00+00:00</time>
        <ele>1859.0</ele>
      </trkpt>
      <trkpt lat="46.93312" lon="11.998093">
        <time>1970-01-01T00:00:00+00:00</time>
        <ele>1863.0</ele>
      </trkpt>
      <trkpt lat="46.933219" lon="11.998089">
        <time>1970-01-01T00:00:00+00:00</time>
        <ele>1865.0</ele>
      </trkpt>
      <trkpt lat="46.933394" lon="11.998271">
        <time>1970-01-01T00:00:00+00:00</time>
        <ele>1869.0</ele>
      </trkpt>
      <trkpt lat="46.933381" lon="11.998374">
        <time>1970-01-01T00:00:00+00:00</time>
        <ele>1871.0</ele>
      </trkpt>
      <trkpt lat="46.933473" lon="11.998413">
        <time>1970-01-01T00:00:00+00:00</time>
        <ele>1874.0</ele>
      </trkpt>
      <trkpt lat="46.933594" lon="11.998387">
        <time>1970-01-01T00:00:00+00:00</time>
        <ele>1878.0</ele>
      </trkpt>
      <trkpt lat="46.933631" lon="11.998433">
        <time>1970-01-01T00:00:00+00:00</time>
        <ele>1879.0</ele>
      </trkpt>
      <trkpt lat="46.933664" lon="11.998572">
        <time>1970-01-01T00:00:00+00:00</time>
        <ele>1883.0</ele>
      </trkpt>
      <trkpt lat="46.933709" lon="11.998568">
        <time>1970-01-01T00:00:00+00:00</time>
        <ele>1884.0</ele>
      </trkpt>
      <trkpt lat="46.933739" lon="11.998619">
        <time>1970-01-01T00:00:00+00:00</time>
        <ele>1886.0</ele>
      </trkpt>
      <trkpt lat="46.933828" lon="11.998677">
        <time>1970-01-01T00:00:00+00:00</time>
        <ele>1889.0</ele>
      </trkpt>
      <trkpt lat="46.933912" lon="11.998772">
        <time>1970-01-01T00:00:00+00:00</time>
        <ele>1893.0</ele>
      </trkpt>
      <trkpt lat="46.934134" lon="11.998872">
        <time>1970-01-01T00:00:00+00:00</time>
        <ele>1901.0</ele>
      </trkpt>
      <trkpt lat="46.934398" lon="11.998905">
        <time>1970-01-01T00:00:00+00:00</time>
        <ele>1909.0</ele>
      </trkpt>
      <trkpt lat="46.934603" lon="11.999047">
        <time>1970-01-01T00:00:00+00:00</time>
        <ele>1920.0</ele>
      </trkpt>
      <trkpt lat="46.93453" lon="11.999196">
        <time>1970-01-01T00:00:00+00:00</time>
        <ele>1924.0</ele>
      </trkpt>
      <trkpt lat="46.934269" lon="11.999396">
        <time>1970-01-01T00:00:00+00:00</time>
        <ele>1928.0</ele>
      </trkpt>
      <trkpt lat="46.934378" lon="11.999734">
        <time>1970-01-01T00:00:00+00:00</time>
        <ele>1946.0</ele>
      </trkpt>
      <trkpt lat="46.934373" lon="11.999852">
        <time>1970-01-01T00:00:00+00:00</time>
        <ele>1952.0</ele>
      </trkpt>
      <trkpt lat="46.934479" lon="11.999938">
        <time>1970-01-01T00:00:00+00:00</time>
        <ele>1956.0</ele>
      </trkpt>
      <trkpt lat="46.934496" lon="12.000046">
        <time>1970-01-01T00:00:00+00:00</time>
        <ele>1961.0</ele>
      </trkpt>
      <trkpt lat="46.934487" lon="12.000181">
        <time>1970-01-01T00:00:00+00:00</time>
        <ele>1966.0</ele>
      </trkpt>
      <trkpt lat="46.934686" lon="12.000457">
        <time>1970-01-01T00:00:00+00:00</time>
        <ele>1977.0</ele>
      </trkpt>
      <trkpt lat="46.934756" lon="12.000458">
        <time>1970-01-01T00:00:00+00:00</time>
        <ele>1978.0</ele>
      </trkpt>
      <trkpt lat="46.934941" lon="12.000747">
        <time>1970-01-01T00:00:00+00:00</time>
        <ele>1988.0</ele>
      </trkpt>
      <trkpt lat="46.93535" lon="12.000767">
        <time>1970-01-01T00:00:00+00:00</time>
        <ele>1999.0</ele>
      </trkpt>
      <trkpt lat="46.93553" lon="12.000652">
        <time>1970-01-01T00:00:00+00:00</time>
        <ele>2003.0</ele>
      </trkpt>
      <trkpt lat="46.935607" lon="12.000629">
        <time>1970-01-01T00:00:00+00:00</time>
        <ele>2005.0</ele>
      </trkpt>
      <trkpt lat="46.935648" lon="12.00045">
        <time>1970-01-01T00:00:00+00:00</time>
        <ele>2005.0</ele>
      </trkpt>
      <trkpt lat="46.935692" lon="12.000512">
        <time>1970-01-01T00:00:00+00:00</time>
        <ele>2007.0</ele>
      </trkpt>
      <trkpt lat="46.935774" lon="12.00051">
        <time>1970-01-01T00:00:00+00:00</time>
        <ele>2010.0</ele>
      </trkpt>
      <trkpt lat="46.935874" lon="12.00058">
        <time>1970-01-01T00:00:00+00:00</time>
        <ele>2015.0</ele>
      </trkpt>
      <trkpt lat="46.93603" lon="12.00083">
        <time>1970-01-01T00:00:00+00:00</time>
        <ele>2025.0</ele>
      </trkpt>
      <trkpt lat="46.936364" lon="12.000835">
        <time>1970-01-01T00:00:00+00:00</time>
        <ele>2034.0</ele>
      </trkpt>
      <trkpt lat="46.936388" lon="12.000908">
        <time>1970-01-01T00:00:00+00:00</time>
        <ele>2036.0</ele>
      </trkpt>
      <trkpt lat="46.936555" lon="12.000988">
        <time>1970-01-01T00:00:00+00:00</time>
        <ele>2042.0</ele>
      </trkpt>
      <trkpt lat="46.936669" lon="12.000962">
        <time>1970-01-01T00:00:00+00:00</time>
        <ele>2045.0</ele>
      </trkpt>
      <trkpt lat="46.936754" lon="12.001125">
        <time>1970-01-01T00:00:00+00:00</time>
        <ele>2051.0</ele>
      </trkpt>
      <trkpt lat="46.93683" lon="12.001089">
        <time>1970-01-01T00:00:00+00:00</time>
        <ele>2055.0</ele>
      </trkpt>
      <trkpt lat="46.936879" lon="12.001151">
        <time>1970-01-01T00:00:00+00:00</time>
        <ele>2058.0</ele>
      </trkpt>
      <trkpt lat="46.936981" lon="12.001158">
        <time>1970-01-01T00:00:00+00:00</time>
        <ele>2062.0</ele>
      </trkpt>
      <trkpt lat="46.937174" lon="12.001631">
        <time>1970-01-01T00:00:00+00:00</time>
        <ele>2074.0</ele>
      </trkpt>
      <trkpt lat="46.937483" lon="12.002015">
        <time>1970-01-01T00:00:00+00:00</time>
        <ele>2085.0</ele>
      </trkpt>
      <trkpt lat="46.937711" lon="12.002064">
        <time>1970-01-01T00:00:00+00:00</time>
        <ele>2090.0</ele>
      </trkpt>
      <trkpt lat="46.937837" lon="12.001931">
        <time>1970-01-01T00:00:00+00:00</time>
        <ele>2093.0</ele>
      </trkpt>
      <trkpt lat="46.937915" lon="12.001976">
        <time>1970-01-01T00:00:00+00:00</time>
        <ele>2097.0</ele>
      </trkpt>
      <trkpt lat="46.938024" lon="12.001903">
        <time>1970-01-01T00:00:00+00:00</time>
        <ele>2103.0</ele>
      </trkpt>
      <trkpt lat="46.938038" lon="12.002063">
        <time>1970-01-01T00:00:00+00:00</time>
        <ele>2105.0</ele>
      </trkpt>
      <trkpt lat="46.938105" lon="12.002083">
        <time>1970-01-01T00:00:00+00:00</time>
        <ele>2108.0</ele>
      </trkpt>
      <trkpt lat="46.938124" lon="12.002216">
        <time>1970-01-01T00:00:00+00:00</time>
        <ele>2111.0</ele>
      </trkpt>
      <trkpt lat="46.938198" lon="12.00217">
        <time>1970-01-01T00:00:00+00:00</time>
        <ele>2114.0</ele>
      </trkpt>
      <trkpt lat="46.938202" lon="12.002311">
        <time>1970-01-01T00:00:00+00:00</time>
        <ele>2116.0</ele>
      </trkpt>
      <trkpt lat="46.938293" lon="12.002313">
        <time>1970-01-01T00:00:00+00:00</time>
        <ele>2121.0</ele>
      </trkpt>
      <trkpt lat="46.938364" lon="12.002381">
        <time>1970-01-01T00:00:00+00:00</time>
        <ele>2127.0</ele>
      </trkpt>
      <trkpt lat="46.938439" lon="12.002553">
        <time>1970-01-01T00:00:00+00:00</time>
        <ele>2133.0</ele>
      </trkpt>
      <trkpt lat="46.938489" lon="12.002506">
        <time>1970-01-01T00:00:00+00:00</time>
        <ele>2135.0</ele>
      </trkpt>
      <trkpt lat="46.938549" lon="12.002556">
        <time>1970-01-01T00:00:00+00:00</time>
        <ele>2139.0</ele>
      </trkpt>
      <trkpt lat="46.93862" lon="12.002745">
        <time>1970-01-01T00:00:00+00:00</time>
        <ele>2145.0</ele>
      </trkpt>
      <trkpt lat="46.938731" lon="12.002715">
        <time>1970-01-01T00:00:00+00:00</time>
        <ele>2148.0</ele>
      </trkpt>
      <trkpt lat="46.938779" lon="12.002831">
        <time>1970-01-01T00:00:00+00:00</time>
        <ele>2151.0</ele>
      </trkpt>
      <trkpt lat="46.938967" lon="12.002903">
        <time>1970-01-01T00:00:00+00:00</time>
        <ele>2160.0</ele>
      </trkpt>
      <trkpt lat="46.939118" lon="12.003064">
        <time>1970-01-01T00:00:00+00:00</time>
        <ele>2170.0</ele>
      </trkpt>
      <trkpt lat="46.939147" lon="12.003224">
        <time>1970-01-01T00:00:00+00:00</time>
        <ele>2174.0</ele>
      </trkpt>
      <trkpt lat="46.939268" lon="12.003274">
        <time>1970-01-01T00:00:00+00:00</time>
        <ele>2179.0</ele>
      </trkpt>
      <trkpt lat="46.93929" lon="12.003383">
        <time>1970-01-01T00:00:00+00:00</time>
        <ele>2181.0</ele>
      </trkpt>
      <trkpt lat="46.939396" lon="12.003362">
        <time>1970-01-01T00:00:00+00:00</time>
        <ele>2186.0</ele>
      </trkpt>
      <trkpt lat="46.939442" lon="12.003435">
        <time>1970-01-01T00:00:00+00:00</time>
        <ele>2188.0</ele>
      </trkpt>
      <trkpt lat="46.939501" lon="12.003426">
        <time>1970-01-01T00:00:00+00:00</time>
        <ele>2191.0</ele>
      </trkpt>
      <trkpt lat="46.939529" lon="12.003513">
        <time>1970-01-01T00:00:00+00:00</time>
        <ele>2194.0</ele>
      </trkpt>
      <trkpt lat="46.93966" lon="12.00355">
        <time>1970-01-01T00:00:00+00:00</time>
        <ele>2202.0</ele>
      </trkpt>
      <trkpt lat="46.939684" lon="12.00362">
        <time>1970-01-01T00:00:00+00:00</time>
        <ele>2204.0</ele>
      </trkpt>
      <trkpt lat="46.939787" lon="12.003663">
        <time>1970-01-01T00:00:00+00:00</time>
        <ele>2209.0</ele>
      </trkpt>
      <trkpt lat="46.939884" lon="12.003792">
        <time>1970-01-01T00:00:00+00:00</time>
        <ele>2216.0</ele>
      </trkpt>
      <trkpt lat="46.940129" lon="12.003909">
        <time>1970-01-01T00:00:00+00:00</time>
        <ele>2233.0</ele>
      </trkpt>
      <trkpt lat="46.940171" lon="12.003873">
        <time>1970-01-01T00:00:00+00:00</time>
        <ele>2235.0</ele>
      </trkpt>
      <trkpt lat="46.940195" lon="12.003986">
        <time>1970-01-01T00:00:00+00:00</time>
        <ele>2238.0</ele>
      </trkpt>
      <trkpt lat="46.9403" lon="12.003968">
        <time>1970-01-01T00:00:00+00:00</time>
        <ele>2243.0</ele>
      </trkpt>
      <trkpt lat="46.940411" lon="12.004121">
        <time>1970-01-01T00:00:00+00:00</time>
        <ele>2250.0</ele>
      </trkpt>
      <trkpt lat="46.940475" lon="12.004343">
        <time>1970-01-01T00:00:00+00:00</time>
        <ele>2254.0</ele>
      </trkpt>
      <trkpt lat="46.940572" lon="12.00436">
        <time>1970-01-01T00:00:00+00:00</time>
        <ele>2259.0</ele>
      </trkpt>
      <trkpt lat="46.940661" lon="12.004555">
        <time>1970-01-01T00:00:00+00:00</time>
        <ele>2265.0</ele>
      </trkpt>
      <trkpt lat="46.940774" lon="12.004649">
        <time>1970-01-01T00:00:00+00:00</time>
        <ele>2272.0</ele>
      </trkpt>
      <trkpt lat="46.940937" lon="12.005043">
        <time>1970-01-01T00:00:00+00:00</time>
        <ele>2284.0</ele>
      </trkpt>
      <trkpt lat="46.941006" lon="12.005037">
        <time>1970-01-01T00:00:00+00:00</time>
        <ele>2287.0</ele>
      </trkpt>
      <trkpt lat="46.941331" lon="12.005365">
        <time>1970-01-01T00:00:00+00:00</time>
        <ele>2304.0</ele>
      </trkpt>
      <trkpt lat="46.941451" lon="12.005376">
        <time>1970-01-01T00:00:00+00:00</time>
        <ele>2310.0</ele>
      </trkpt>
      <trkpt lat="46.941679" lon="12.005595">
        <time>1970-01-01T00:00:00+00:00</time>
        <ele>2323.0</ele>
      </trkpt>
      <trkpt lat="46.941787" lon="12.005613">
        <time>1970-01-01T00:00:00+00:00</time>
        <ele>2327.0</ele>
      </trkpt>
      <trkpt lat="46.94193" lon="12.005755">
        <time>1970-01-01T00:00:00+00:00</time>
        <ele>2335.0</ele>
      </trkpt>
      <trkpt lat="46.941919" lon="12.005849">
        <time>1970-01-01T00:00:00+00:00</time>
        <ele>2335.0</ele>
      </trkpt>
      <trkpt lat="46.942007" lon="12.005935">
        <time>1970-01-01T00:00:00+00:00</time>
        <ele>2340.0</ele>
      </trkpt>
      <trkpt lat="46.942041" lon="12.006081">
        <time>1970-01-01T00:00:00+00:00</time>
        <ele>2344.0</ele>
      </trkpt>
      <trkpt lat="46.942089" lon="12.006023">
        <time>1970-01-01T00:00:00+00:00</time>
        <ele>2345.0</ele>
      </trkpt>
      <trkpt lat="46.942253" lon="12.006003">
        <time>1970-01-01T00:00:00+00:00</time>
        <ele>2353.0</ele>
      </trkpt>
      <trkpt lat="46.942389" lon="12.00629">
        <time>1970-01-01T00:00:00+00:00</time>
        <ele>2363.0</ele>
      </trkpt>
      <trkpt lat="46.942465" lon="12.006214">
        <time>1970-01-01T00:00:00+00:00</time>
        <ele>2363.0</ele>
      </trkpt>
      <trkpt lat="46.942535" lon="12.006243">
        <time>1970-01-01T00:00:00+00:00</time>
        <ele>2366.0</ele>
      </trkpt>
      <trkpt lat="46.942706" lon="12.006911">
        <time>1970-01-01T00:00:00+00:00</time>
        <ele>2381.0</ele>
      </trkpt>
      <trkpt lat="46.942645" lon="12.00725">
        <time>1970-01-01T00:00:00+00:00</time>
        <ele>2384.0</ele>
      </trkpt>
      <trkpt lat="46.942763" lon="12.007364">
        <time>1970-01-01T00:00:00+00:00</time>
        <ele>2389.0</ele>
      </trkpt>
      <trkpt lat="46.943299" lon="12.008392">
        <time>1970-01-01T00:00:00+00:00</time>
        <ele>2417.0</ele>
      </trkpt>
      <trkpt lat="46.943551" lon="12.008522">
        <time>1970-01-01T00:00:00+00:00</time>
        <ele>2424.0</ele>
      </trkpt>
      <trkpt lat="46.943738" lon="12.008771">
        <time>1970-01-01T00:00:00+00:00</time>
        <ele>2428.0</ele>
      </trkpt>
      <trkpt lat="46.943948" lon="12.008811">
        <time>1970-01-01T00:00:00+00:00</time>
        <ele>2430.0</ele>
      </trkpt>
      <trkpt lat="46.944205" lon="12.009035">
        <time>1970-01-01T00:00:00+00:00</time>
        <ele>2433.0</ele>
      </trkpt>
      <trkpt lat="46.944506" lon="12.009337">
        <time>1970-01-01T00:00:00+00:00</time>
        <ele>2441.0</ele>
      </trkpt>
      <trkpt lat="46.944792" lon="12.009874">
        <time>1970-01-01T00:00:00+00:00</time>
        <ele>2456.0</ele>
      </trkpt>
      <trkpt lat="46.944804" lon="12.00978">
        <time>1970-01-01T00:00:00+00:00</time>
        <ele>2457.0</ele>
      </trkpt>
      <trkpt lat="46.944868" lon="12.009809">
        <time>1970-01-01T00:00:00+00:00</time>
        <ele>2461.0</ele>
      </trkpt>
      <trkpt lat="46.945071" lon="12.009974">
        <time>1970-01-01T00:00:00+00:00</time>
        <ele>2474.0</ele>
      </trkpt>
      <trkpt lat="46.945109" lon="12.010107">
        <time>1970-01-01T00:00:00+00:00</time>
        <ele>2476.0</ele>
      </trkpt>
      <trkpt lat="46.945199" lon="12.010087">
        <time>1970-01-01T00:00:00+00:00</time>
        <ele>2482.0</ele>
      </trkpt>
      <trkpt lat="46.945371" lon="12.010392">
        <time>1970-01-01T00:00:00+00:00</time>
        <ele>2492.0</ele>
      </trkpt>
      <trkpt lat="46.945645" lon="12.010384">
        <time>1970-01-01T00:00:00+00:00</time>
        <ele>2503.0</ele>
      </trkpt>
      <trkpt lat="46.945903" lon="12.01066">
        <time>1970-01-01T00:00:00+00:00</time>
        <ele>2513.0</ele>
      </trkpt>
      <trkpt lat="46.945976" lon="12.010835">
        <time>1970-01-01T00:00:00+00:00</time>
        <ele>2517.0</ele>
      </trkpt>
      <trkpt lat="46.945968" lon="12.010758">
        <time>1970-01-01T00:00:00+00:00</time>
        <ele>2516.0</ele>
      </trkpt>
      <trkpt lat="46.946028" lon="12.01078">
        <time>1970-01-01T00:00:00+00:00</time>
        <ele>2517.0</ele>
      </trkpt>
      <trkpt lat="46.946094" lon="12.010837">
        <time>1970-01-01T00:00:00+00:00</time>
        <ele>2520.0</ele>
      </trkpt>
      <trkpt lat="46.946076" lon="12.011054">
        <time>1970-01-01T00:00:00+00:00</time>
        <ele>2524.0</ele>
      </trkpt>
      <trkpt lat="46.946093" lon="12.011165">
        <time>1970-01-01T00:00:00+00:00</time>
        <ele>2527.0</ele>
      </trkpt>
      <trkpt lat="46.946548" lon="12.011654">
        <time>1970-01-01T00:00:00+00:00</time>
        <ele>2553.0</ele>
      </trkpt>
      <trkpt lat="46.946596" lon="12.01181">
        <time>1970-01-01T00:00:00+00:00</time>
        <ele>2560.0</ele>
      </trkpt>
      <trkpt lat="46.946389" lon="12.011875">
        <time>1970-01-01T00:00:00+00:00</time>
        <ele>2557.0</ele>
      </trkpt>
      <trkpt lat="46.946396" lon="12.011951">
        <time>1970-01-01T00:00:00+00:00</time>
        <ele>2561.0</ele>
      </trkpt>
      <trkpt lat="46.946462" lon="12.012017">
        <time>1970-01-01T00:00:00+00:00</time>
        <ele>2565.0</ele>
      </trkpt>
      <trkpt lat="46.94645" lon="12.012069">
        <time>1970-01-01T00:00:00+00:00</time>
        <ele>2566.0</ele>
      </trkpt>
      <trkpt lat="46.946387" lon="12.01208">
        <time>1970-01-01T00:00:00+00:00</time>
        <ele>2564.0</ele>
      </trkpt>
      <trkpt lat="46.946621" lon="12.012648">
        <time>1970-01-01T00:00:00+00:00</time>
        <ele>2605.0</ele>
      </trkpt>
      <trkpt lat="46.946827" lon="12.012923">
        <time>1970-01-01T00:00:00+00:00</time>
        <ele>2628.0</ele>
      </trkpt>
      <trkpt lat="46.946785" lon="12.013018">
        <time>1970-01-01T00:00:00+00:00</time>
        <ele>2630.0</ele>
      </trkpt>
      <trkpt lat="46.946632" lon="12.012964">
        <time>1970-01-01T00:00:00+00:00</time>
        <ele>2621.0</ele>
      </trkpt>
      <trkpt lat="46.946769" lon="12.013129">
        <time>1970-01-01T00:00:00+00:00</time>
        <ele>2634.0</ele>
      </trkpt>
      <trkpt lat="46.946755" lon="12.013248">
        <time>1970-01-01T00:00:00+00:00</time>
        <ele>2639.0</ele>
      </trkpt>
      <trkpt lat="46.946802" lon="12.013304">
        <time>1970-01-01T00:00:00+00:00</time>
        <ele>2644.0</ele>
      </trkpt>
      <trkpt lat="46.946742" lon="12.013404">
        <time>1970-01-01T00:00:00+00:00</time>
        <ele>2647.0</ele>
      </trkpt>
      <trkpt lat="46.946794" lon="12.013433">
        <time>1970-01-01T00:00:00+00:00</time>
        <ele>2651.0</ele>
      </trkpt>
      <trkpt lat="46.946772" lon="12.013584">
        <time>1970-01-01T00:00:00+00:00</time>
        <ele>2659.0</ele>
      </trkpt>
      <trkpt lat="46.946836" lon="12.01375">
        <time>1970-01-01T00:00:00+00:00</time>
        <ele>2670.0</ele>
      </trkpt>
      <trkpt lat="46.946939" lon="12.013801">
        <time>1970-01-01T00:00:00+00:00</time>
        <ele>2676.0</ele>
      </trkpt>
      <trkpt lat="46.946985" lon="12.013968">
        <time>1970-01-01T00:00:00+00:00</time>
        <ele>2690.0</ele>
      </trkpt>
      <trkpt lat="46.947302" lon="12.014228">
        <time>1970-01-01T00:00:00+00:00</time>
        <ele>2714.0</ele>
      </trkpt>
      <trkpt lat="46.9475" lon="12.014182">
        <time>1970-01-01T00:00:00+00:00</time>
        <ele>2718.0</ele>
      </trkpt>
      <trkpt lat="46.947741" lon="12.014349">
        <time>1970-01-01T00:00:00+00:00</time>
        <ele>2733.0</ele>
      </trkpt>
      <trkpt lat="46.947761" lon="12.014294">
        <time>1970-01-01T00:00:00+00:00</time>
        <ele>2730.0</ele>
      </trkpt>
      <trkpt lat="46.948077" lon="12.014295">
        <time>1970-01-01T00:00:00+00:00</time>
        <ele>2745.0</ele>
      </trkpt>
      <trkpt lat="46.948027" lon="12.014537">
        <time>1970-01-01T00:00:00+00:00</time>
        <ele>2755.0</ele>
      </trkpt>
      <trkpt lat="46.948129" lon="12.014614">
        <time>1970-01-01T00:00:00+00:00</time>
        <ele>2763.0</ele>
      </trkpt>
      <trkpt lat="46.948084" lon="12.014757">
        <time>1970-01-01T00:00:00+00:00</time>
        <ele>2767.0</ele>
      </trkpt>
      <trkpt lat="46.948102" lon="12.014969">
        <time>1970-01-01T00:00:00+00:00</time>
        <ele>2774.0</ele>
      </trkpt>
      <trkpt lat="46.948047" lon="12.015155">
        <time>1970-01-01T00:00:00+00:00</time>
        <ele>2775.0</ele>
      </trkpt>
      <trkpt lat="46.948064" lon="12.015291">
        <time>1970-01-01T00:00:00+00:00</time>
        <ele>2780.0</ele>
      </trkpt>
      <trkpt lat="46.948114" lon="12.015474">
        <time>1970-01-01T00:00:00+00:00</time>
        <ele>2787.0</ele>
      </trkpt>
      <trkpt lat="46.948245" lon="12.015592">
        <time>1970-01-01T00:00:00+00:00</time>
        <ele>2790.0</ele>
      </trkpt>
      <trkpt lat="46.948318" lon="12.015769">
        <time>1970-01-01T00:00:00+00:00</time>
        <ele>2793.0</ele>
      </trkpt>
      <trkpt lat="46.948402" lon="12.016738">
        <time>1970-01-01T00:00:00+00:00</time>
        <ele>2803.0</ele>
      </trkpt>
      <trkpt lat="46.948367" lon="12.016778">
        <time>1970-01-01T00:00:00+00:00</time>
        <ele>2804.0</ele>
      </trkpt>
      <trkpt lat="46.948433" lon="12.016968">
        <time>1970-01-01T00:00:00+00:00</time>
        <ele>2806.0</ele>
      </trkpt>
      <trkpt lat="46.948337" lon="12.017058">
        <time>1970-01-01T00:00:00+00:00</time>
        <ele>2809.0</ele>
      </trkpt>
      <trkpt lat="46.948418" lon="12.017394">
        <time>1970-01-01T00:00:00+00:00</time>
        <ele>2814.0</ele>
      </trkpt>
      <trkpt lat="46.948363" lon="12.017426">
        <time>1970-01-01T00:00:00+00:00</time>
        <ele>2815.0</ele>
      </trkpt>
      <trkpt lat="46.948384" lon="12.017589">
        <time>1970-01-01T00:00:00+00:00</time>
        <ele>2817.0</ele>
      </trkpt>
      <trkpt lat="46.948072" lon="12.018042">
        <time>1970-01-01T00:00:00+00:00</time>
        <ele>2819.0</ele>
      </trkpt>
      <trkpt lat="46.948132" lon="12.018257">
        <time>1970-01-01T00:00:00+00:00</time>
        <ele>2827.0</ele>
      </trkpt>
      <trkpt lat="46.948116" lon="12.018456">
        <time>1970-01-01T00:00:00+00:00</time>
        <ele>2828.0</ele>
      </trkpt>
      <trkpt lat="46.948213" lon="12.018611">
        <time>1970-01-01T00:00:00+00:00</time>
        <ele>2835.0</ele>
      </trkpt>
      <trkpt lat="46.948201" lon="12.018675">
        <time>1970-01-01T00:00:00+00:00</time>
        <ele>2836.0</ele>
      </trkpt>
      <trkpt lat="46.948324" lon="12.018794">
        <time>1970-01-01T00:00:00+00:00</time>
        <ele>2843.0</ele>
      </trkpt>
      <trkpt lat="46.948375" lon="12.018899">
        <time>1970-01-01T00:00:00+00:00</time>
        <ele>2849.0</ele>
      </trkpt>
      <trkpt lat="46.948363" lon="12.018993">
        <time>1970-01-01T00:00:00+00:00</time>
        <ele>2852.0</ele>
      </trkpt>
      <trkpt lat="46.948505" lon="12.019155">
        <time>1970-01-01T00:00:00+00:00</time>
        <ele>2872.0</ele>
      </trkpt>
      <trkpt lat="46.948491" lon="12.019277">
        <time>1970-01-01T00:00:00+00:00</time>
        <ele>2879.0</ele>
      </trkpt>
      <trkpt lat="46.948522" lon="12.019336">
        <time>1970-01-01T00:00:00+00:00</time>
        <ele>2888.0</ele>
      </trkpt>
      <trkpt lat="46.948489" lon="12.01937">
        <time>1970-01-01T00:00:00+00:00</time>
        <ele>2886.0</ele>
      </trkpt>
      <trkpt lat="46.948541" lon="12.019438">
        <time>1970-01-01T00:00:00+00:00</time>
        <ele>2901.0</ele>
      </trkpt>
      <trkpt lat="46.948485" lon="12.019484">
        <time>1970-01-01T00:00:00+00:00</time>
        <ele>2894.0</ele>
      </trkpt>
      <trkpt lat="46.948603" lon="12.019723">
        <time>1970-01-01T00:00:00+00:00</time>
        <ele>2928.0</ele>
      </trkpt>
      <trkpt lat="46.948616" lon="12.019907">
        <time>1970-01-01T00:00:00+00:00</time>
        <ele>2934.0</ele>
      </trkpt>
      <trkpt lat="46.948733" lon="12.020056">
        <time>1970-01-01T00:00:00+00:00</time>
        <ele>2955.0</ele>
      </trkpt>
      <trkpt lat="46.948956" lon="12.020559">
        <time>1970-01-01T00:00:00+00:00</time>
        <ele>2939.0</ele>
      </trkpt>
      <trkpt lat="46.949015" lon="12.020528">
        <time>1970-01-01T00:00:00+00:00</time>
        <ele>2947.0</ele>
      </trkpt>
      <trkpt lat="46.949079" lon="12.020631">
        <time>1970-01-01T00:00:00+00:00</time>
        <ele>2942.0</ele>
      </trkpt>
      <trkpt lat="46.949128" lon="12.020612">
        <time>1970-01-01T00:00:00+00:00</time>
        <ele>2946.0</ele>
      </trkpt>
      <trkpt lat="46.949211" lon="12.020769">
        <time>1970-01-01T00:00:00+00:00</time>
        <ele>2939.0</ele>
      </trkpt>
      <trkpt lat="46.949327" lon="12.020871">
        <time>1970-01-01T00:00:00+00:00</time>
        <ele>2938.0</ele>
      </trkpt>
      <trkpt lat="46.949415" lon="12.021139">
        <time>1970-01-01T00:00:00+00:00</time>
        <ele>2937.0</ele>
      </trkpt>
      <trkpt lat="46.94966" lon="12.021297">
        <time>1970-01-01T00:00:00+00:00</time>
        <ele>2954.0</ele>
      </trkpt>
      <trkpt lat="46.949935" lon="12.021355">
        <time>1970-01-01T00:00:00+00:00</time>
        <ele>2972.0</ele>
      </trkpt>
      <trkpt lat="46.949906" lon="12.021392">
        <time>1970-01-01T00:00:00+00:00</time>
        <ele>2971.0</ele>
      </trkpt>
      <trkpt lat="46.950006" lon="12.021576">
        <time>1970-01-01T00:00:00+00:00</time>
        <ele>2980.0</ele>
      </trkpt>
      <trkpt lat="46.950278" lon="12.021778">
        <time>1970-01-01T00:00:00+00:00</time>
        <ele>2997.0</ele>
      </trkpt>
      <trkpt lat="46.950226" lon="12.021896">
        <time>1970-01-01T00:00:00+00:00</time>
        <ele>2997.0</ele>
      </trkpt>
      <trkpt lat="46.950283" lon="12.022044">
        <time>1970-01-01T00:00:00+00:00</time>
        <ele>3001.0</ele>
      </trkpt>
      <trkpt lat="46.950357" lon="12.021909">
        <time>1970-01-01T00:00:00+00:00</time>
        <ele>3003.0</ele>
      </trkpt>
      <trkpt lat="46.950504" lon="12.022003">
        <time>1970-01-01T00:00:00+00:00</time>
        <ele>3011.0</ele>
      </trkpt>
      <trkpt lat="46.950487" lon="12.022097">
        <time>1970-01-01T00:00:00+00:00</time>
        <ele>3012.0</ele>
      </trkpt>
      <trkpt lat="46.95055" lon="12.022229">
        <time>1970-01-01T00:00:00+00:00</time>
        <ele>3016.0</ele>
      </trkpt>
      <trkpt lat="46.95067" lon="12.022371">
        <time>1970-01-01T00:00:00+00:00</time>
        <ele>3019.0</ele>
      </trkpt>
      <trkpt lat="46.950757" lon="12.022552">
        <time>1970-01-01T00:00:00+00:00</time>
        <ele>3018.0</ele>
      </trkpt>
      <trkpt lat="46.95081" lon="12.022552">
        <time>1970-01-01T00:00:00+00:00</time>
        <ele>3019.0</ele>
      </trkpt>
      <trkpt lat="46.95081" lon="12.022552">
        <time>1970-01-01T00:00:00+00:00</time>
        <ele>3019.0</ele>
      </trkpt>
      <trkpt lat="46.950757" lon="12.022552">
        <time>1970-01-01T00:00:00+00:00</time>
        <ele>3018.0</ele>
      </trkpt>
      <trkpt lat="46.95067" lon="12.022371">
        <time>1970-01-01T00:00:00+00:00</time>
        <ele>3019.0</ele>
      </trkpt>
      <trkpt lat="46.95055" lon="12.022229">
        <time>1970-01-01T00:00:00+00:00</time>
        <ele>3016.0</ele>
      </trkpt>
      <trkpt lat="46.950487" lon="12.022097">
        <time>1970-01-01T00:00:00+00:00</time>
        <ele>3012.0</ele>
      </trkpt>
      <trkpt lat="46.950504" lon="12.022003">
        <time>1970-01-01T00:00:00+00:00</time>
        <ele>3011.0</ele>
      </trkpt>
      <trkpt lat="46.950357" lon="12.021909">
        <time>1970-01-01T00:00:00+00:00</time>
        <ele>3003.0</ele>
      </trkpt>
      <trkpt lat="46.950283" lon="12.022044">
        <time>1970-01-01T00:00:00+00:00</time>
        <ele>3001.0</ele>
      </trkpt>
      <trkpt lat="46.950226" lon="12.021896">
        <time>1970-01-01T00:00:00+00:00</time>
        <ele>2997.0</ele>
      </trkpt>
      <trkpt lat="46.950278" lon="12.021778">
        <time>1970-01-01T00:00:00+00:00</time>
        <ele>2997.0</ele>
      </trkpt>
      <trkpt lat="46.950006" lon="12.021576">
        <time>1970-01-01T00:00:00+00:00</time>
        <ele>2980.0</ele>
      </trkpt>
      <trkpt lat="46.949906" lon="12.021392">
        <time>1970-01-01T00:00:00+00:00</time>
        <ele>2971.0</ele>
      </trkpt>
      <trkpt lat="46.949935" lon="12.021355">
        <time>1970-01-01T00:00:00+00:00</time>
        <ele>2972.0</ele>
      </trkpt>
      <trkpt lat="46.94966" lon="12.021297">
        <time>1970-01-01T00:00:00+00:00</time>
        <ele>2954.0</ele>
      </trkpt>
      <trkpt lat="46.949415" lon="12.021139">
        <time>1970-01-01T00:00:00+00:00</time>
        <ele>2937.0</ele>
      </trkpt>
      <trkpt lat="46.949327" lon="12.020871">
        <time>1970-01-01T00:00:00+00:00</time>
        <ele>2938.0</ele>
      </trkpt>
      <trkpt lat="46.949211" lon="12.020769">
        <time>1970-01-01T00:00:00+00:00</time>
        <ele>2939.0</ele>
      </trkpt>
      <trkpt lat="46.949128" lon="12.020612">
        <time>1970-01-01T00:00:00+00:00</time>
        <ele>2946.0</ele>
      </trkpt>
      <trkpt lat="46.949079" lon="12.020631">
        <time>1970-01-01T00:00:00+00:00</time>
        <ele>2942.0</ele>
      </trkpt>
      <trkpt lat="46.949015" lon="12.020528">
        <time>1970-01-01T00:00:00+00:00</time>
        <ele>2947.0</ele>
      </trkpt>
      <trkpt lat="46.948956" lon="12.020559">
        <time>1970-01-01T00:00:00+00:00</time>
        <ele>2939.0</ele>
      </trkpt>
      <trkpt lat="46.948733" lon="12.020056">
        <time>1970-01-01T00:00:00+00:00</time>
        <ele>2955.0</ele>
      </trkpt>
      <trkpt lat="46.948616" lon="12.019907">
        <time>1970-01-01T00:00:00+00:00</time>
        <ele>2934.0</ele>
      </trkpt>
      <trkpt lat="46.948603" lon="12.019723">
        <time>1970-01-01T00:00:00+00:00</time>
        <ele>2928.0</ele>
      </trkpt>
      <trkpt lat="46.948485" lon="12.019484">
        <time>1970-01-01T00:00:00+00:00</time>
        <ele>2894.0</ele>
      </trkpt>
      <trkpt lat="46.948541" lon="12.019438">
        <time>1970-01-01T00:00:00+00:00</time>
        <ele>2901.0</ele>
      </trkpt>
      <trkpt lat="46.948489" lon="12.01937">
        <time>1970-01-01T00:00:00+00:00</time>
        <ele>2886.0</ele>
      </trkpt>
      <trkpt lat="46.948522" lon="12.019336">
        <time>1970-01-01T00:00:00+00:00</time>
        <ele>2888.0</ele>
      </trkpt>
      <trkpt lat="46.948491" lon="12.019277">
        <time>1970-01-01T00:00:00+00:00</time>
        <ele>2879.0</ele>
      </trkpt>
      <trkpt lat="46.948505" lon="12.019155">
        <time>1970-01-01T00:00:00+00:00</time>
        <ele>2872.0</ele>
      </trkpt>
      <trkpt lat="46.948363" lon="12.018993">
        <time>1970-01-01T00:00:00+00:00</time>
        <ele>2852.0</ele>
      </trkpt>
      <trkpt lat="46.948375" lon="12.018899">
        <time>1970-01-01T00:00:00+00:00</time>
        <ele>2849.0</ele>
      </trkpt>
      <trkpt lat="46.948324" lon="12.018794">
        <time>1970-01-01T00:00:00+00:00</time>
        <ele>2843.0</ele>
      </trkpt>
      <trkpt lat="46.948201" lon="12.018675">
        <time>1970-01-01T00:00:00+00:00</time>
        <ele>2836.0</ele>
      </trkpt>
      <trkpt lat="46.948213" lon="12.018611">
        <time>1970-01-01T00:00:00+00:00</time>
        <ele>2835.0</ele>
      </trkpt>
      <trkpt lat="46.948116" lon="12.018456">
        <time>1970-01-01T00:00:00+00:00</time>
        <ele>2828.0</ele>
      </trkpt>
      <trkpt lat="46.948132" lon="12.018257">
        <time>1970-01-01T00:00:00+00:00</time>
        <ele>2827.0</ele>
      </trkpt>
      <trkpt lat="46.948072" lon="12.018042">
        <time>1970-01-01T00:00:00+00:00</time>
        <ele>2819.0</ele>
      </trkpt>
      <trkpt lat="46.948384" lon="12.017589">
        <time>1970-01-01T00:00:00+00:00</time>
        <ele>2817.0</ele>
      </trkpt>
      <trkpt lat="46.948363" lon="12.017426">
        <time>1970-01-01T00:00:00+00:00</time>
        <ele>2815.0</ele>
      </trkpt>
      <trkpt lat="46.948418" lon="12.017394">
        <time>1970-01-01T00:00:00+00:00</time>
        <ele>2814.0</ele>
      </trkpt>
      <trkpt lat="46.948337" lon="12.017058">
        <time>1970-01-01T00:00:00+00:00</time>
        <ele>2809.0</ele>
      </trkpt>
      <trkpt lat="46.948433" lon="12.016968">
        <time>1970-01-01T00:00:00+00:00</time>
        <ele>2806.0</ele>
      </trkpt>
      <trkpt lat="46.948367" lon="12.016778">
        <time>1970-01-01T00:00:00+00:00</time>
        <ele>2804.0</ele>
      </trkpt>
      <trkpt lat="46.948402" lon="12.016738">
        <time>1970-01-01T00:00:00+00:00</time>
        <ele>2803.0</ele>
      </trkpt>
      <trkpt lat="46.948318" lon="12.015769">
        <time>1970-01-01T00:00:00+00:00</time>
        <ele>2793.0</ele>
      </trkpt>
      <trkpt lat="46.948245" lon="12.015592">
        <time>1970-01-01T00:00:00+00:00</time>
        <ele>2790.0</ele>
      </trkpt>
      <trkpt lat="46.948114" lon="12.015474">
        <time>1970-01-01T00:00:00+00:00</time>
        <ele>2787.0</ele>
      </trkpt>
      <trkpt lat="46.948064" lon="12.015291">
        <time>1970-01-01T00:00:00+00:00</time>
        <ele>2780.0</ele>
      </trkpt>
      <trkpt lat="46.948047" lon="12.015155">
        <time>1970-01-01T00:00:00+00:00</time>
        <ele>2775.0</ele>
      </trkpt>
      <trkpt lat="46.948102" lon="12.014969">
        <time>1970-01-01T00:00:00+00:00</time>
        <ele>2774.0</ele>
      </trkpt>
      <trkpt lat="46.948084" lon="12.014757">
        <time>1970-01-01T00:00:00+00:00</time>
        <ele>2767.0</ele>
      </trkpt>
      <trkpt lat="46.948129" lon="12.014614">
        <time>1970-01-01T00:00:00+00:00</time>
        <ele>2763.0</ele>
      </trkpt>
      <trkpt lat="46.948027" lon="12.014537">
        <time>1970-01-01T00:00:00+00:00</time>
        <ele>2755.0</ele>
      </trkpt>
      <trkpt lat="46.948077" lon="12.014295">
        <time>1970-01-01T00:00:00+00:00</time>
        <ele>2745.0</ele>
      </trkpt>
      <trkpt lat="46.947761" lon="12.014294">
        <time>1970-01-01T00:00:00+00:00</time>
        <ele>2730.0</ele>
      </trkpt>
      <trkpt lat="46.947741" lon="12.014349">
        <time>1970-01-01T00:00:00+00:00</time>
        <ele>2733.0</ele>
      </trkpt>
      <trkpt lat="46.9475" lon="12.014182">
        <time>1970-01-01T00:00:00+00:00</time>
        <ele>2718.0</ele>
      </trkpt>
      <trkpt lat="46.947302" lon="12.014228">
        <time>1970-01-01T00:00:00+00:00</time>
        <ele>2714.0</ele>
      </trkpt>
      <trkpt lat="46.946985" lon="12.013968">
        <time>1970-01-01T00:00:00+00:00</time>
        <ele>2690.0</ele>
      </trkpt>
      <trkpt lat="46.946939" lon="12.013801">
        <time>1970-01-01T00:00:00+00:00</time>
        <ele>2676.0</ele>
      </trkpt>
      <trkpt lat="46.946836" lon="12.01375">
        <time>1970-01-01T00:00:00+00:00</time>
        <ele>2670.0</ele>
      </trkpt>
      <trkpt lat="46.946772" lon="12.013584">
        <time>1970-01-01T00:00:00+00:00</time>
        <ele>2659.0</ele>
      </trkpt>
      <trkpt lat="46.946794" lon="12.013433">
        <time>1970-01-01T00:00:00+00:00</time>
        <ele>2651.0</ele>
      </trkpt>
      <trkpt lat="46.946742" lon="12.013404">
        <time>1970-01-01T00:00:00+00:00</time>
        <ele>2647.0</ele>
      </trkpt>
      <trkpt lat="46.946802" lon="12.013304">
        <time>1970-01-01T00:00:00+00:00</time>
        <ele>2644.0</ele>
      </trkpt>
      <trkpt lat="46.946755" lon="12.013248">
        <time>1970-01-01T00:00:00+00:00</time>
        <ele>2639.0</ele>
      </trkpt>
      <trkpt lat="46.946769" lon="12.013129">
        <time>1970-01-01T00:00:00+00:00</time>
        <ele>2634.0</ele>
      </trkpt>
      <trkpt lat="46.946632" lon="12.012964">
        <time>1970-01-01T00:00:00+00:00</time>
        <ele>2621.0</ele>
      </trkpt>
      <trkpt lat="46.946785" lon="12.013018">
        <time>1970-01-01T00:00:00+00:00</time>
        <ele>2630.0</ele>
      </trkpt>
      <trkpt lat="46.946827" lon="12.012923">
        <time>1970-01-01T00:00:00+00:00</time>
        <ele>2628.0</ele>
      </trkpt>
      <trkpt lat="46.946621" lon="12.012648">
        <time>1970-01-01T00:00:00+00:00</time>
        <ele>2605.0</ele>
      </trkpt>
      <trkpt lat="46.946387" lon="12.01208">
        <time>1970-01-01T00:00:00+00:00</time>
        <ele>2564.0</ele>
      </trkpt>
      <trkpt lat="46.94645" lon="12.012069">
        <time>1970-01-01T00:00:00+00:00</time>
        <ele>2566.0</ele>
      </trkpt>
      <trkpt lat="46.946462" lon="12.012017">
        <time>1970-01-01T00:00:00+00:00</time>
        <ele>2565.0</ele>
      </trkpt>
      <trkpt lat="46.946396" lon="12.011951">
        <time>1970-01-01T00:00:00+00:00</time>
        <ele>2561.0</ele>
      </trkpt>
      <trkpt lat="46.946389" lon="12.011875">
        <time>1970-01-01T00:00:00+00:00</time>
        <ele>2557.0</ele>
      </trkpt>
      <trkpt lat="46.946596" lon="12.01181">
        <time>1970-01-01T00:00:00+00:00</time>
        <ele>2560.0</ele>
      </trkpt>
      <trkpt lat="46.946548" lon="12.011654">
        <time>1970-01-01T00:00:00+00:00</time>
        <ele>2553.0</ele>
      </trkpt>
      <trkpt lat="46.946093" lon="12.011165">
        <time>1970-01-01T00:00:00+00:00</time>
        <ele>2527.0</ele>
      </trkpt>
      <trkpt lat="46.946076" lon="12.011054">
        <time>1970-01-01T00:00:00+00:00</time>
        <ele>2524.0</ele>
      </trkpt>
      <trkpt lat="46.946094" lon="12.010837">
        <time>1970-01-01T00:00:00+00:00</time>
        <ele>2520.0</ele>
      </trkpt>
      <trkpt lat="46.946028" lon="12.01078">
        <time>1970-01-01T00:00:00+00:00</time>
        <ele>2517.0</ele>
      </trkpt>
      <trkpt lat="46.945968" lon="12.010758">
        <time>1970-01-01T00:00:00+00:00</time>
        <ele>2516.0</ele>
      </trkpt>
      <trkpt lat="46.945976" lon="12.010835">
        <time>1970-01-01T00:00:00+00:00</time>
        <ele>2517.0</ele>
      </trkpt>
      <trkpt lat="46.945903" lon="12.01066">
        <time>1970-01-01T00:00:00+00:00</time>
        <ele>2513.0</ele>
      </trkpt>
      <trkpt lat="46.945645" lon="12.010384">
        <time>1970-01-01T00:00:00+00:00</time>
        <ele>2503.0</ele>
      </trkpt>
      <trkpt lat="46.945371" lon="12.010392">
        <time>1970-01-01T00:00:00+00:00</time>
        <ele>2492.0</ele>
      </trkpt>
      <trkpt lat="46.945199" lon="12.010087">
        <time>1970-01-01T00:00:00+00:00</time>
        <ele>2482.0</ele>
      </trkpt>
      <trkpt lat="46.945109" lon="12.010107">
        <time>1970-01-01T00:00:00+00:00</time>
        <ele>2476.0</ele>
      </trkpt>
      <trkpt lat="46.945071" lon="12.009974">
        <time>1970-01-01T00:00:00+00:00</time>
        <ele>2474.0</ele>
      </trkpt>
      <trkpt lat="46.944868" lon="12.009809">
        <time>1970-01-01T00:00:00+00:00</time>
        <ele>2461.0</ele>
      </trkpt>
      <trkpt lat="46.944804" lon="12.00978">
        <time>1970-01-01T00:00:00+00:00</time>
        <ele>2457.0</ele>
      </trkpt>
      <trkpt lat="46.944792" lon="12.009874">
        <time>1970-01-01T00:00:00+00:00</time>
        <ele>2456.0</ele>
      </trkpt>
      <trkpt lat="46.944506" lon="12.009337">
        <time>1970-01-01T00:00:00+00:00</time>
        <ele>2441.0</ele>
      </trkpt>
      <trkpt lat="46.944205" lon="12.009035">
        <time>1970-01-01T00:00:00+00:00</time>
        <ele>2433.0</ele>
      </trkpt>
      <trkpt lat="46.943948" lon="12.008811">
        <time>1970-01-01T00:00:00+00:00</time>
        <ele>2430.0</ele>
      </trkpt>
      <trkpt lat="46.943738" lon="12.008771">
        <time>1970-01-01T00:00:00+00:00</time>
        <ele>2428.0</ele>
      </trkpt>
      <trkpt lat="46.943551" lon="12.008522">
        <time>1970-01-01T00:00:00+00:00</time>
        <ele>2424.0</ele>
      </trkpt>
      <trkpt lat="46.943299" lon="12.008392">
        <time>1970-01-01T00:00:00+00:00</time>
        <ele>2417.0</ele>
      </trkpt>
      <trkpt lat="46.942763" lon="12.007364">
        <time>1970-01-01T00:00:00+00:00</time>
        <ele>2389.0</ele>
      </trkpt>
      <trkpt lat="46.942645" lon="12.00725">
        <time>1970-01-01T00:00:00+00:00</time>
        <ele>2384.0</ele>
      </trkpt>
      <trkpt lat="46.942706" lon="12.006911">
        <time>1970-01-01T00:00:00+00:00</time>
        <ele>2381.0</ele>
      </trkpt>
      <trkpt lat="46.942535" lon="12.006243">
        <time>1970-01-01T00:00:00+00:00</time>
        <ele>2366.0</ele>
      </trkpt>
      <trkpt lat="46.942465" lon="12.006214">
        <time>1970-01-01T00:00:00+00:00</time>
        <ele>2363.0</ele>
      </trkpt>
      <trkpt lat="46.942389" lon="12.00629">
        <time>1970-01-01T00:00:00+00:00</time>
        <ele>2363.0</ele>
      </trkpt>
      <trkpt lat="46.942253" lon="12.006003">
        <time>1970-01-01T00:00:00+00:00</time>
        <ele>2353.0</ele>
      </trkpt>
      <trkpt lat="46.942089" lon="12.006023">
        <time>1970-01-01T00:00:00+00:00</time>
        <ele>2345.0</ele>
      </trkpt>
      <trkpt lat="46.942041" lon="12.006081">
        <time>1970-01-01T00:00:00+00:00</time>
        <ele>2344.0</ele>
      </trkpt>
      <trkpt lat="46.942007" lon="12.005935">
        <time>1970-01-01T00:00:00+00:00</time>
        <ele>2340.0</ele>
      </trkpt>
      <trkpt lat="46.941919" lon="12.005849">
        <time>1970-01-01T00:00:00+00:00</time>
        <ele>2335.0</ele>
      </trkpt>
      <trkpt lat="46.94193" lon="12.005755">
        <time>1970-01-01T00:00:00+00:00</time>
        <ele>2335.0</ele>
      </trkpt>
      <trkpt lat="46.941787" lon="12.005613">
        <time>1970-01-01T00:00:00+00:00</time>
        <ele>2327.0</ele>
      </trkpt>
      <trkpt lat="46.941679" lon="12.005595">
        <time>1970-01-01T00:00:00+00:00</time>
        <ele>2323.0</ele>
      </trkpt>
      <trkpt lat="46.941451" lon="12.005376">
        <time>1970-01-01T00:00:00+00:00</time>
        <ele>2310.0</ele>
      </trkpt>
      <trkpt lat="46.941331" lon="12.005365">
        <time>1970-01-01T00:00:00+00:00</time>
        <ele>2304.0</ele>
      </trkpt>
      <trkpt lat="46.941006" lon="12.005037">
        <time>1970-01-01T00:00:00+00:00</time>
        <ele>2287.0</ele>
      </trkpt>
      <trkpt lat="46.940937" lon="12.005043">
        <time>1970-01-01T00:00:00+00:00</time>
        <ele>2284.0</ele>
      </trkpt>
      <trkpt lat="46.940774" lon="12.004649">
        <time>1970-01-01T00:00:00+00:00</time>
        <ele>2272.0</ele>
      </trkpt>
      <trkpt lat="46.940661" lon="12.004555">
        <time>1970-01-01T00:00:00+00:00</time>
        <ele>2265.0</ele>
      </trkpt>
      <trkpt lat="46.940572" lon="12.00436">
        <time>1970-01-01T00:00:00+00:00</time>
        <ele>2259.0</ele>
      </trkpt>
      <trkpt lat="46.940475" lon="12.004343">
        <time>1970-01-01T00:00:00+00:00</time>
        <ele>2254.0</ele>
      </trkpt>
      <trkpt lat="46.940411" lon="12.004121">
        <time>1970-01-01T00:00:00+00:00</time>
        <ele>2250.0</ele>
      </trkpt>
      <trkpt lat="46.9403" lon="12.003968">
        <time>1970-01-01T00:00:00+00:00</time>
        <ele>2243.0</ele>
      </trkpt>
      <trkpt lat="46.940195" lon="12.003986">
        <time>1970-01-01T00:00:00+00:00</time>
        <ele>2238.0</ele>
      </trkpt>
      <trkpt lat="46.940171" lon="12.003873">
        <time>1970-01-01T00:00:00+00:00</time>
        <ele>2235.0</ele>
      </trkpt>
      <trkpt lat="46.940129" lon="12.003909">
        <time>1970-01-01T00:00:00+00:00</time>
        <ele>2233.0</ele>
      </trkpt>
      <trkpt lat="46.939884" lon="12.003792">
        <time>1970-01-01T00:00:00+00:00</time>
        <ele>2216.0</ele>
      </trkpt>
      <trkpt lat="46.939787" lon="12.003663">
        <time>1970-01-01T00:00:00+00:00</time>
        <ele>2209.0</ele>
      </trkpt>
      <trkpt lat="46.939684" lon="12.00362">
        <time>1970-01-01T00:00:00+00:00</time>
        <ele>2204.0</ele>
      </trkpt>
      <trkpt lat="46.93966" lon="12.00355">
        <time>1970-01-01T00:00:00+00:00</time>
        <ele>2202.0</ele>
      </trkpt>
      <trkpt lat="46.939529" lon="12.003513">
        <time>1970-01-01T00:00:00+00:00</time>
        <ele>2194.0</ele>
      </trkpt>
      <trkpt lat="46.939501" lon="12.003426">
        <time>1970-01-01T00:00:00+00:00</time>
        <ele>2191.0</ele>
      </trkpt>
      <trkpt lat="46.939442" lon="12.003435">
        <time>1970-01-01T00:00:00+00:00</time>
        <ele>2188.0</ele>
      </trkpt>
      <trkpt lat="46.939396" lon="12.003362">
        <time>1970-01-01T00:00:00+00:00</time>
        <ele>2186.0</ele>
      </trkpt>
      <trkpt lat="46.93929" lon="12.003383">
        <time>1970-01-01T00:00:00+00:00</time>
        <ele>2181.0</ele>
      </trkpt>
      <trkpt lat="46.939268" lon="12.003274">
        <time>1970-01-01T00:00:00+00:00</time>
        <ele>2179.0</ele>
      </trkpt>
      <trkpt lat="46.939147" lon="12.003224">
        <time>1970-01-01T00:00:00+00:00</time>
        <ele>2174.0</ele>
      </trkpt>
      <trkpt lat="46.939118" lon="12.003064">
        <time>1970-01-01T00:00:00+00:00</time>
        <ele>2170.0</ele>
      </trkpt>
      <trkpt lat="46.938967" lon="12.002903">
        <time>1970-01-01T00:00:00+00:00</time>
        <ele>2160.0</ele>
      </trkpt>
      <trkpt lat="46.938779" lon="12.002831">
        <time>1970-01-01T00:00:00+00:00</time>
        <ele>2151.0</ele>
      </trkpt>
      <trkpt lat="46.938731" lon="12.002715">
        <time>1970-01-01T00:00:00+00:00</time>
        <ele>2148.0</ele>
      </trkpt>
      <trkpt lat="46.93862" lon="12.002745">
        <time>1970-01-01T00:00:00+00:00</time>
        <ele>2145.0</ele>
      </trkpt>
      <trkpt lat="46.938549" lon="12.002556">
        <time>1970-01-01T00:00:00+00:00</time>
        <ele>2139.0</ele>
      </trkpt>
      <trkpt lat="46.938489" lon="12.002506">
        <time>1970-01-01T00:00:00+00:00</time>
        <ele>2135.0</ele>
      </trkpt>
      <trkpt lat="46.938439" lon="12.002553">
        <time>1970-01-01T00:00:00+00:00</time>
        <ele>2133.0</ele>
      </trkpt>
      <trkpt lat="46.938364" lon="12.002381">
        <time>1970-01-01T00:00:00+00:00</time>
        <ele>2127.0</ele>
      </trkpt>
      <trkpt lat="46.938293" lon="12.002313">
        <time>1970-01-01T00:00:00+00:00</time>
        <ele>2121.0</ele>
      </trkpt>
      <trkpt lat="46.938202" lon="12.002311">
        <time>1970-01-01T00:00:00+00:00</time>
        <ele>2116.0</ele>
      </trkpt>
      <trkpt lat="46.938198" lon="12.00217">
        <time>1970-01-01T00:00:00+00:00</time>
        <ele>2114.0</ele>
      </trkpt>
      <trkpt lat="46.938124" lon="12.002216">
        <time>1970-01-01T00:00:00+00:00</time>
        <ele>2111.0</ele>
      </trkpt>
      <trkpt lat="46.938105" lon="12.002083">
        <time>1970-01-01T00:00:00+00:00</time>
        <ele>2108.0</ele>
      </trkpt>
      <trkpt lat="46.938038" lon="12.002063">
        <time>1970-01-01T00:00:00+00:00</time>
        <ele>2105.0</ele>
      </trkpt>
      <trkpt lat="46.938024" lon="12.001903">
        <time>1970-01-01T00:00:00+00:00</time>
        <ele>2103.0</ele>
      </trkpt>
      <trkpt lat="46.937915" lon="12.001976">
        <time>1970-01-01T00:00:00+00:00</time>
        <ele>2097.0</ele>
      </trkpt>
      <trkpt lat="46.937837" lon="12.001931">
        <time>1970-01-01T00:00:00+00:00</time>
        <ele>2093.0</ele>
      </trkpt>
      <trkpt lat="46.937711" lon="12.002064">
        <time>1970-01-01T00:00:00+00:00</time>
        <ele>2090.0</ele>
      </trkpt>
      <trkpt lat="46.937483" lon="12.002015">
        <time>1970-01-01T00:00:00+00:00</time>
        <ele>2085.0</ele>
      </trkpt>
      <trkpt lat="46.937174" lon="12.001631">
        <time>1970-01-01T00:00:00+00:00</time>
        <ele>2074.0</ele>
      </trkpt>
      <trkpt lat="46.936981" lon="12.001158">
        <time>1970-01-01T00:00:00+00:00</time>
        <ele>2062.0</ele>
      </trkpt>
      <trkpt lat="46.936879" lon="12.001151">
        <time>1970-01-01T00:00:00+00:00</time>
        <ele>2058.0</ele>
      </trkpt>
      <trkpt lat="46.93683" lon="12.001089">
        <time>1970-01-01T00:00:00+00:00</time>
        <ele>2055.0</ele>
      </trkpt>
      <trkpt lat="46.936754" lon="12.001125">
        <time>1970-01-01T00:00:00+00:00</time>
        <ele>2051.0</ele>
      </trkpt>
      <trkpt lat="46.936669" lon="12.000962">
        <time>1970-01-01T00:00:00+00:00</time>
        <ele>2045.0</ele>
      </trkpt>
      <trkpt lat="46.936555" lon="12.000988">
        <time>1970-01-01T00:00:00+00:00</time>
        <ele>2042.0</ele>
      </trkpt>
      <trkpt lat="46.936388" lon="12.000908">
        <time>1970-01-01T00:00:00+00:00</time>
        <ele>2036.0</ele>
      </trkpt>
      <trkpt lat="46.936364" lon="12.000835">
        <time>1970-01-01T00:00:00+00:00</time>
        <ele>2034.0</ele>
      </trkpt>
      <trkpt lat="46.93603" lon="12.00083">
        <time>1970-01-01T00:00:00+00:00</time>
        <ele>2025.0</ele>
      </trkpt>
      <trkpt lat="46.935874" lon="12.00058">
        <time>1970-01-01T00:00:00+00:00</time>
        <ele>2015.0</ele>
      </trkpt>
      <trkpt lat="46.935774" lon="12.00051">
        <time>1970-01-01T00:00:00+00:00</time>
        <ele>2010.0</ele>
      </trkpt>
      <trkpt lat="46.935692" lon="12.000512">
        <time>1970-01-01T00:00:00+00:00</time>
        <ele>2007.0</ele>
      </trkpt>
      <trkpt lat="46.935648" lon="12.00045">
        <time>1970-01-01T00:00:00+00:00</time>
        <ele>2005.0</ele>
      </trkpt>
      <trkpt lat="46.935607" lon="12.000629">
        <time>1970-01-01T00:00:00+00:00</time>
        <ele>2005.0</ele>
      </trkpt>
      <trkpt lat="46.93553" lon="12.000652">
        <time>1970-01-01T00:00:00+00:00</time>
        <ele>2003.0</ele>
      </trkpt>
      <trkpt lat="46.93535" lon="12.000767">
        <time>1970-01-01T00:00:00+00:00</time>
        <ele>1999.0</ele>
      </trkpt>
      <trkpt lat="46.934941" lon="12.000747">
        <time>1970-01-01T00:00:00+00:00</time>
        <ele>1988.0</ele>
      </trkpt>
      <trkpt lat="46.934756" lon="12.000458">
        <time>1970-01-01T00:00:00+00:00</time>
        <ele>1978.0</ele>
      </trkpt>
      <trkpt lat="46.934686" lon="12.000457">
        <time>1970-01-01T00:00:00+00:00</time>
        <ele>1977.0</ele>
      </trkpt>
      <trkpt lat="46.934487" lon="12.000181">
        <time>1970-01-01T00:00:00+00:00</time>
        <ele>1966.0</ele>
      </trkpt>
      <trkpt lat="46.934496" lon="12.000046">
        <time>1970-01-01T00:00:00+00:00</time>
        <ele>1961.0</ele>
      </trkpt>
      <trkpt lat="46.934479" lon="11.999938">
        <time>1970-01-01T00:00:00+00:00</time>
        <ele>1956.0</ele>
      </trkpt>
      <trkpt lat="46.934373" lon="11.999852">
        <time>1970-01-01T00:00:00+00:00</time>
        <ele>1952.0</ele>
      </trkpt>
      <trkpt lat="46.934378" lon="11.999734">
        <time>1970-01-01T00:00:00+00:00</time>
        <ele>1946.0</ele>
      </trkpt>
      <trkpt lat="46.934269" lon="11.999396">
        <time>1970-01-01T00:00:00+00:00</time>
        <ele>1928.0</ele>
      </trkpt>
      <trkpt lat="46.93453" lon="11.999196">
        <time>1970-01-01T00:00:00+00:00</time>
        <ele>1924.0</ele>
      </trkpt>
      <trkpt lat="46.934603" lon="11.999047">
        <time>1970-01-01T00:00:00+00:00</time>
        <ele>1920.0</ele>
      </trkpt>
      <trkpt lat="46.934398" lon="11.998905">
        <time>1970-01-01T00:00:00+00:00</time>
        <ele>1909.0</ele>
      </trkpt>
      <trkpt lat="46.934134" lon="11.998872">
        <time>1970-01-01T00:00:00+00:00</time>
        <ele>1901.0</ele>
      </trkpt>
      <trkpt lat="46.933912" lon="11.998772">
        <time>1970-01-01T00:00:00+00:00</time>
        <ele>1893.0</ele>
      </trkpt>
      <trkpt lat="46.933828" lon="11.998677">
        <time>1970-01-01T00:00:00+00:00</time>
        <ele>1889.0</ele>
      </trkpt>
      <trkpt lat="46.933739" lon="11.998619">
        <time>1970-01-01T00:00:00+00:00</time>
        <ele>1886.0</ele>
      </trkpt>
      <trkpt lat="46.933709" lon="11.998568">
        <time>1970-01-01T00:00:00+00:00</time>
        <ele>1884.0</ele>
      </trkpt>
      <trkpt lat="46.933664" lon="11.998572">
        <time>1970-01-01T00:00:00+00:00</time>
        <ele>1883.0</ele>
      </trkpt>
      <trkpt lat="46.933631" lon="11.998433">
        <time>1970-01-01T00:00:00+00:00</time>
        <ele>1879.0</ele>
      </trkpt>
      <trkpt lat="46.933594" lon="11.998387">
        <time>1970-01-01T00:00:00+00:00</time>
        <ele>1878.0</ele>
      </trkpt>
      <trkpt lat="46.933473" lon="11.998413">
        <time>1970-01-01T00:00:00+00:00</time>
        <ele>1874.0</ele>
      </trkpt>
      <trkpt lat="46.933381" lon="11.998374">
        <time>1970-01-01T00:00:00+00:00</time>
        <ele>1871.0</ele>
      </trkpt>
      <trkpt lat="46.933394" lon="11.998271">
        <time>1970-01-01T00:00:00+00:00</time>
        <ele>1869.0</ele>
      </trkpt>
      <trkpt lat="46.933219" lon="11.998089">
        <time>1970-01-01T00:00:00+00:00</time>
        <ele>1865.0</ele>
      </trkpt>
      <trkpt lat="46.93312" lon="11.998093">
        <time>1970-01-01T00:00:00+00:00</time>
        <ele>1863.0</ele>
      </trkpt>
      <trkpt lat="46.932917" lon="11.99804">
        <time>1970-01-01T00:00:00+00:00</time>
        <ele>1859.0</ele>
      </trkpt>
      <trkpt lat="46.932799" lon="11.997915">
        <time>1970-01-01T00:00:00+00:00</time>
        <ele>1856.0</ele>
      </trkpt>
      <trkpt lat="46.932596" lon="11.997846">
        <time>1970-01-01T00:00:00+00:00</time>
        <ele>1851.0</ele>
      </trkpt>
      <trkpt lat="46.932411" lon="11.997747">
        <time>1970-01-01T00:00:00+00:00</time>
        <ele>1845.0</ele>
      </trkpt>
      <trkpt lat="46.932064" lon="11.99751">
        <time>1970-01-01T00:00:00+00:00</time>
        <ele>1834.0</ele>
      </trkpt>
      <trkpt lat="46.931922" lon="11.997334">
        <time>1970-01-01T00:00:00+00:00</time>
        <ele>1826.0</ele>
      </trkpt>
      <trkpt lat="46.93195" lon="11.997188">
        <time>1970-01-01T00:00:00+00:00</time>
        <ele>1823.0</ele>
      </trkpt>
      <trkpt lat="46.932065" lon="11.99701">
        <time>1970-01-01T00:00:00+00:00</time>
        <ele>1821.0</ele>
      </trkpt>
      <trkpt lat="46.932052" lon="11.99682">
        <time>1970-01-01T00:00:00+00:00</time>
        <ele>1814.0</ele>
      </trkpt>
      <trkpt lat="46.932005" lon="11.996756">
        <time>1970-01-01T00:00:00+00:00</time>
        <ele>1810.0</ele>
      </trkpt>
      <trkpt lat="46.931952" lon="11.996552">
        <time>1970-01-01T00:00:00+00:00</time>
        <ele>1803.0</ele>
      </trkpt>
      <trkpt lat="46.93195" lon="11.996429">
        <time>1970-01-01T00:00:00+00:00</time>
        <ele>1802.0</ele>
      </trkpt>
      <trkpt lat="46.93188" lon="11.9963">
        <time>1970-01-01T00:00:00+00:00</time>
        <ele>1798.0</ele>
      </trkpt>
      <trkpt lat="46.931859" lon="11.995979">
        <time>1970-01-01T00:00:00+00:00</time>
        <ele>1791.0</ele>
      </trkpt>
      <trkpt lat="46.931818" lon="11.995841">
        <time>1970-01-01T00:00:00+00:00</time>
        <ele>1787.0</ele>
      </trkpt>
      <trkpt lat="46.931819" lon="11.995582">
        <time>1970-01-01T00:00:00+00:00</time>
        <ele>1781.0</ele>
      </trkpt>
      <trkpt lat="46.931699" lon="11.995637">
        <time>1970-01-01T00:00:00+00:00</time>
        <ele>1777.0</ele>
      </trkpt>
      <trkpt lat="46.931505" lon="11.995889">
        <time>1970-01-01T00:00:00+00:00</time>
        <ele>1775.0</ele>
      </trkpt>
      <trkpt lat="46.931285" lon="11.995954">
        <time>1970-01-01T00:00:00+00:00</time>
        <ele>1768.0</ele>
      </trkpt>
      <trkpt lat="46.931249" lon="11.995938">
        <time>1970-01-01T00:00:00+00:00</time>
        <ele>1767.0</ele>
      </trkpt>
      <trkpt lat="46.931117" lon="11.996002">
        <time>1970-01-01T00:00:00+00:00</time>
        <ele>1763.0</ele>
      </trkpt>
      <trkpt lat="46.930999" lon="11.996141">
        <time>1970-01-01T00:00:00+00:00</time>
        <ele>1760.0</ele>
      </trkpt>
      <trkpt lat="46.930706" lon="11.996238">
        <time>1970-01-01T00:00:00+00:00</time>
        <ele>1751.0</ele>
      </trkpt>
      <trkpt lat="46.930611" lon="11.996308">
        <time>1970-01-01T00:00:00+00:00</time>
        <ele>1748.0</ele>
      </trkpt>
      <trkpt lat="46.93052" lon="11.996431">
        <time>1970-01-01T00:00:00+00:00</time>
        <ele>1745.0</ele>
      </trkpt>
      <trkpt lat="46.930439" lon="11.996372">
        <time>1970-01-01T00:00:00+00:00</time>
        <ele>1741.0</ele>
      </trkpt>
      <trkpt lat="46.930336" lon="11.996458">
        <time>1970-01-01T00:00:00+00:00</time>
        <ele>1736.0</ele>
      </trkpt>
      <trkpt lat="46.930212" lon="11.996502">
        <time>1970-01-01T00:00:00+00:00</time>
        <ele>1732.0</ele>
      </trkpt>
      <trkpt lat="46.930095" lon="11.996538">
        <time>1970-01-01T00:00:00+00:00</time>
        <ele>1729.0</ele>
      </trkpt>
      <trkpt lat="46.929952" lon="11.996699">
        <time>1970-01-01T00:00:00+00:00</time>
        <ele>1725.0</ele>
      </trkpt>
      <trkpt lat="46.929816" lon="11.996737">
        <time>1970-01-01T00:00:00+00:00</time>
        <ele>1719.0</ele>
      </trkpt>
      <trkpt lat="46.929662" lon="11.996694">
        <time>1970-01-01T00:00:00+00:00</time>
        <ele>1711.0</ele>
      </trkpt>
      <trkpt lat="46.929574" lon="11.996533">
        <time>1970-01-01T00:00:00+00:00</time>
        <ele>1703.0</ele>
      </trkpt>
      <trkpt lat="46.929527" lon="11.996506">
        <time>1970-01-01T00:00:00+00:00</time>
        <ele>1701.0</ele>
      </trkpt>
      <trkpt lat="46.929439" lon="11.99649">
        <time>1970-01-01T00:00:00+00:00</time>
        <ele>1696.0</ele>
      </trkpt>
      <trkpt lat="46.929252" lon="11.996522">
        <time>1970-01-01T00:00:00+00:00</time>
        <ele>1686.0</ele>
      </trkpt>
      <trkpt lat="46.929109" lon="11.996565">
        <time>1970-01-01T00:00:00+00:00</time>
        <ele>1680.0</ele>
      </trkpt>
      <trkpt lat="46.929007" lon="11.996656">
        <time>1970-01-01T00:00:00+00:00</time>
        <ele>1679.0</ele>
      </trkpt>
      <trkpt lat="46.928871" lon="11.996715">
        <time>1970-01-01T00:00:00+00:00</time>
        <ele>1673.0</ele>
      </trkpt>
      <trkpt lat="46.928732" lon="11.996742">
        <time>1970-01-01T00:00:00+00:00</time>
        <ele>1666.0</ele>
      </trkpt>
      <trkpt lat="46.928618" lon="11.996726">
        <time>1970-01-01T00:00:00+00:00</time>
        <ele>1658.0</ele>
      </trkpt>
      <trkpt lat="46.928538" lon="11.996667">
        <time>1970-01-01T00:00:00+00:00</time>
        <ele>1654.0</ele>
      </trkpt>
      <trkpt lat="46.92845" lon="11.996694">
        <time>1970-01-01T00:00:00+00:00</time>
        <ele>1651.0</ele>
      </trkpt>
      <trkpt lat="46.928266" lon="11.996886">
        <time>1970-01-01T00:00:00+00:00</time>
        <ele>1648.0</ele>
      </trkpt>
      <trkpt lat="46.928284" lon="11.996594">
        <time>1970-01-01T00:00:00+00:00</time>
        <ele>1639.0</ele>
      </trkpt>
    </trkseg>
  </trk>
</gpx>
